User: anonymous   Login
Location: Thompson
(55.7500°N, 97.8670°W)
Time: 10:19:58
(UTC-06:00)
Language:

Cosmos 1833 Rocket - Orbit

View from above orbital plane
View from above orbital plane
View from above satellite
View from above satellite

Ground track
Ground track

The orbit data is extracted from the following two-line orbital elements,

1 17590U 87027B   15028.62007801  .00000247  00000-0  14769-3 0  8820
2 17590 071.0031 183.0836 0005741 213.9585 146.1172 14.16672850440825
Epoch (UTC): 28 January 2015 14:52:54
Eccentricity: 0.0005741
inclination: 71.0031°
perigee height: 832 km
apogee height: 841 km
right ascension of ascending node: 183.0836°
argument of perigee: 213.9585°
revolutions per day: 14.16672850
mean anomaly at epoch: 146.1172°
orbit number at epoch: 44082

The dashed part of the orbit path shows where the satellite is in the earth's shadow,  

DLR